User: anonymous   Login
Location: Coll
(42.4728°N, 0.7714°E)
Time: 23:03:30
(UTC+00:00)
Language:

Lacrosse 4 Rocket - Orbit

View from above orbital plane
View from above orbital plane
View from above satellite
View from above satellite

Ground track
Ground track

The orbit data is extracted from the following two-line orbital elements,

1 26474U 00047B   21015.26009513  .00000065  00000-0  16536-4 0  9995
2 26474  67.9921 212.6421 0059100 320.6676  39.0180 14.96067372110921
Epoch (UTC): 15 January 2021 06:14:32
Eccentricity: 0.0059100
inclination: 67.9921°
perigee height: 538 km
apogee height: 620 km
right ascension of ascending node: 212.6421°
argument of perigee: 320.6676°
revolutions per day: 14.96067372
mean anomaly at epoch: 39.0180°
orbit number at epoch: 11092

The dashed part of the orbit path shows where the satellite is in the earth's shadow,  

DLR